Content
SEND FEEDBACK

Daily
Averages
Monthly
Summary
Peru

AREQUIPA, PERU


Home > South America > Peru
Elevation: 8268 feet     Latitude: 16 19S     Longitude: 071 33W

WEATHER
 
SELECT A DAY
Number of Records: 162,897;   Date Range: 6/30/96 - 10/18/14
 
SHARE

PRINT THIS DATA

[ ← Previous Day ]
WEATHER ALMANAC - JANUARY 31, 2013
[ Next Day → ]
[ °C ]   °F
Weather ElementAverageHighLow
Temperature59.4 °F69.8 °F (11:00 am)50 °F (6:00 am)
Dewpoint48 °F53.6 °F (6:00 pm)37 °F (1:00 am)
Humidity67.3 %100 % (8:15 pm)34 % (7:00 am)
Barometer30.22 in30.30 in (10:00 pm)30.18 in (3:00 am)
Wind Speed6.7 mph13.8 mph (12:00 pm)
Weather ElementAverage
Visibility5.5 mi
Wind DirectionSSW (204.7 °)

Weather ElementTotal
Precipitation---
Heating Degree Days5.1 (Base 65)
Growing Degree Days9.9 (Base 50)
Averaged from 31 records on January 31, 2013
WEATHER CONDITIONS BREAKOUT
WIND DIRECTION BREAKOUT
WEATHER BY HOUR - JANUARY 31, 2013
[ °C ]   °F
Local TimeTemperatureDewpointHumidityBarometerVisibilityWind DirectionWind SpeedGust SpeedPrecipitationEventsConditions
1:00 AM57.0 °F37.0 °F36 %6.0 miNorth (350°)4.6 mph
1:00 AM57.2 °F37.4 °F48 %30.21 inNorth (350°)4.6 mphClear
2:00 AM55.4 °F44.6 °F67 %30.21 inVariable1.2 mphClear
3:00 AM53.6 °F46.4 °F77 %30.18 inWNW (300°)2.3 mphClear
4:00 AM52.0 °F47.0 °F77 %6.0 miCalm
4:00 AM51.8 °F46.4 °F82 %30.18 inCalmClear
5:00 AM51.8 °F46.4 °F82 %30.18 inCalmClear
6:00 AM50.0 °F46.4 °F87 %30.21 inEast (80°)6.9 mphClear
7:00 AM63.0 °F42.0 °F34 %6.0 miEast (100°)3.5 mph
7:00 AM62.6 °F41.0 °F45 %30.21 inVariable3.5 mphClear
8:00 AM64.4 °F44.6 °F49 %30.21 inSSW (200°)4.6 mphClear
9:00 AM66.2 °F42.8 °F43 %30.24 inSW (230°)8.1 mphClear
10:00 AM68.0 °F47.0 °F36 %6.0 miWSW (250°)10.4 mph
10:00 AM68.0 °F46.4 °F46 %30.24 inWSW (250°)10.4 mphClear
11:00 AM69.8 °F44.6 °F40 %30.21 inWSW (250°)8.1 mphClear
12:00 PM68.0 °F48.2 °F49 %30.21 inWSW (240°)13.8 mphClear
1:00 PM69.8 °F50.0 °F49 %30.21 inWSW (250°)12.7 mphClear
2:00 PM68.0 °F50.0 °F52 %30.21 in6.2 miWSW (240°)13.8 mphPartly Cloudy
3:00 PM68.0 °F51.8 °F56 %30.18 in6.2 miWSW (240°)11.5 mphScattered Clouds
4:00 PM64.0 °F52.0 °F55 %6.0 miWSW (240°)11.5 mph
4:00 PM64.4 °F51.8 °F64 %30.18 in6.2 miWSW (240°)11.5 mphScattered Clouds
5:00 PM59.0 °F51.8 °F77 %30.18 in6.2 miWest (260°)13.8 mphScattered Clouds
6:00 PM57.2 °F53.6 °F88 %30.21 in6.2 miWSW (250°)9.2 mphScattered Clouds
7:00 PM55.4 °F51.8 °F88 %30.24 in6.2 miWest (280°)5.8 mphScattered Clouds
7:00 PM55.0 °F53.0 °F88 %6.0 miWest (280°)5.8 mphOvercast
8:00 PM55.4 °F53.6 °F94 %30.24 in6.2 miWest (260°)5.8 mphScattered Clouds
8:15 PM53.6 °F53.6 °F100 %30.24 in5.6 miWSW (240°)5.8 mphScattered Clouds
9:00 PM53.6 °F51.8 °F94 %30.27 in3.7 miWest (260°)4.6 mphScattered Clouds
10:00 PM53.0 °F52.0 °F96 %3.0 miWSW (250°)4.6 mphOvercast
10:00 PM53.6 °F51.8 °F94 %30.30 in3.1 miWSW (250°)4.6 mphScattered Clouds
11:00 PM53.6 °F51.8 °F94 %30.30 in5.0 miVariable3.5 mphScattered Clouds
Hourly data recorded from SPQU, located miles away from Arequipa, Peru







STORIES FROM OUR PARTNERS